TimeAKST,TemperatureF,Dew PointF,Humidity,Sea Level PressureIn,VisibilityMPH,Wind Direction,Wind SpeedMPH,Gust SpeedMPH,PrecipitationIn,Events,Conditions,WindDirDegrees,DateUTC
12:53 AM,36.0,34.0,93,29.84,8.0,SW,4.6,-,0.03,Rain,Light Rain,220,2012-11-07 09:53:00
1:53 AM,36.0,34.0,93,29.87,8.0,Calm,Calm,-,0.02,Rain,Light Rain,0,2012-11-07 10:53:00
3:53 AM,35.1,34.0,96,29.92,7.0,Calm,Calm,-,0.02,Rain-Snow,Light Rain,0,2012-11-07 12:53:00
4:53 AM,34.0,33.1,96,29.94,10.0,Calm,Calm,-,0.01,Rain-Snow,Light Rain,0,2012-11-07 13:53:00
5:26 AM,33.8,32.0,93,29.96,10.0,West,3.5,-,0.01,Rain-Snow,Light Snow,260,2012-11-07 14:26:00
5:53 AM,34.0,32.0,92,29.97,8.0,West,3.5,-,0.01,Rain-Snow,Light Rain,270,2012-11-07 14:53:00
6:53 AM,33.1,30.9,92,30.01,4.0,West,5.8,-,0.00,Snow,Light Snow,260,2012-11-07 15:53:00
7:53 AM,32.0,30.9,96,30.04,3.0,West,3.5,-,0.01,Snow,Light Snow,270,2012-11-07 16:53:00
8:26 AM,33.8,30.2,87,30.06,8.0,Calm,Calm,-,0.00,Snow,Light Snow,0,2012-11-07 17:26:00
8:53 AM,33.1,30.9,92,30.07,10.0,Calm,Calm,-,0.00,,Overcast,0,2012-11-07 17:53:00
9:53 AM,35.1,32.0,89,30.10,10.0,WNW,5.8,-,0.00,Rain-Snow,Light Snow,290,2012-11-07 18:53:00
10:53 AM,35.1,32.0,89,30.12,10.0,WNW,3.5,-,0.00,Rain,Light Rain,290,2012-11-07 19:53:00
11:53 AM,36.0,30.9,82,30.15,10.0,West,4.6,-,0.00,,Overcast,270,2012-11-07 20:53:00
12:53 PM,36.0,28.9,76,30.17,10.0,West,3.5,-,N/A,,Overcast,270,2012-11-07 21:53:00
1:53 PM,36.0,30.9,82,30.19,10.0,West,5.8,-,N/A,,Overcast,270,2012-11-07 22:53:00
2:53 PM,35.1,30.0,82,30.20,10.0,WSW,4.6,-,N/A,,Overcast,240,2012-11-07 23:53:00
3:53 PM,33.1,30.9,92,30.23,10.0,WSW,3.5,-,N/A,,Mostly Cloudy,250,2012-11-08 00:53:00
4:53 PM,32.0,30.0,92,30.25,10.0,Calm,Calm,-,N/A,,Overcast,0,2012-11-08 01:53:00
5:53 PM,30.0,28.9,96,30.27,10.0,Calm,Calm,-,N/A,,Scattered Clouds,0,2012-11-08 02:53:00
6:16 PM,30.2,28.4,93,30.27,10.0,Calm,Calm,-,N/A,,Scattered Clouds,0,2012-11-08 03:16:00
6:53 PM,30.0,28.9,96,30.28,10.0,Calm,Calm,-,N/A,,Partly Cloudy,0,2012-11-08 03:53:00
7:53 PM,28.0,27.0,96,30.30,10.0,Calm,Calm,-,N/A,,Scattered Clouds,0,2012-11-08 04:53:00
8:53 PM,26.1,26.1,100,30.32,1.0,WNW,3.5,-,N/A,,Mostly Cloudy,290,2012-11-08 05:53:00
9:00 PM,26.6,26.6,100,30.32,1.0,Calm,Calm,-,N/A,,Scattered Clouds,0,2012-11-08 06:00:00
9:18 PM,26.6,24.8,93,30.33,0.2,Calm,Calm,-,N/A,Fog,Light Freezing Fog,0,2012-11-08 06:18:00
9:33 PM,26.6,24.8,93,30.33,1.5,Calm,Calm,-,N/A,,Scattered Clouds,0,2012-11-08 06:33:00
9:51 PM,26.6,24.8,93,30.33,2.0,Calm,Calm,-,N/A,,Scattered Clouds,0,2012-11-08 06:51:00
9:53 PM,26.1,25.0,96,30.34,2.0,Calm,Calm,-,N/A,,Scattered Clouds,0,2012-11-08 06:53:00
10:30 PM,24.8,24.8,100,30.34,7.0,Calm,Calm,-,N/A,,Scattered Clouds,0,2012-11-08 07:30:00
10:53 PM,25.0,24.1,96,30.34,4.0,Calm,Calm,-,N/A,,Scattered Clouds,0,2012-11-08 07:53:00
11:53 PM,26.1,25.0,96,30.36,8.0,Calm,Calm,-,N/A,,Partly Cloudy,0,2012-11-08 08:53:00